[[{"header":{"parameterUnit":"m.s-1","parameterCategory":1,"la1":30.2992,"la2":30.254,"lo1":-89.0895,"lo2":-89.0443,"dy":0.0025,"dx":0.0025,"nx":19,"ny":19,"refTime":"2026-05-07T03:00:00:Z","depth":0,"parameterNumber":2,"parameterNumberName":"U-component_of_WINDS"},"data":[0,0,0,-1.2419,-1.242,-1.2473,-1.2473,-1.2538,-1.2539,0,0,0,0,0,0,0,0,0,0,0,-1.2402,-1.2402,-1.2419,-1.242,-1.2473,-1.2473,-1.2538,-1.2539,0,0,0,0,0,0,0,0,0,0,0,-1.2402,-1.2402,-1.2403,-1.2421,-1.2472,-1.2473,-1.2538,-1.2499,0,0,0,0,0,0,0,0,0,0,-1.2449,-1.2431,-1.2402,-1.2403,-1.2421,-1.2472,-1.2473,-1.2497,-1.2501,-1.2513,0,-1.2523,0,-1.2532,-1.2543,-1.2543,0,0,0,-1.2422,-1.2427,-1.2443,-1.2403,-1.2421,-1.2472,-1.2449,-1.25,-1.2504,-1.2519,-1.2524,-1.2526,-1.2533,-1.2543,-1.2543,-1.2605,-1.2605,0,0,-1.2419,-1.241,-1.244,-1.2446,-1.2437,-1.2448,-1.2451,-1.2503,-1.2507,-1.2524,-1.2528,-1.2534,-1.2544,-1.2544,-1.2604,-1.2605,0,0,0,-1.241,-1.2408,-1.2423,-1.2443,-1.2453,-1.2449,-1.2453,-1.2505,-1.2511,-1.2528,-1.2534,-1.2544,-1.2545,-1.2604,-1.2604,-1.2606,0,0,0,-1.2408,-1.2403,-1.2422,-1.2417,-1.2452,-1.2479,-1.2454,-1.2507,-1.2513,-1.2534,-1.2544,-1.2545,-1.2604,-1.2604,-1.2605,-1.2607,0,0,0,-1.2399,-1.2402,-1.2409,-1.2416,-1.2438,-1.2479,-1.2487,-1.2508,-1.2517,-1.2543,-1.2545,-1.2604,-1.2604,-1.2605,-1.2607,-1.262,0,0,0,-1.2387,-1.241,-1.2409,-1.2436,-1.2438,-1.2479,-1.2487,-1.2518,-1.2541,-1.2544,-1.2604,-1.2604,-1.2605,-1.2606,-1.262,-1.2629,-1.2633,0,0,-1.2411,-1.2412,-1.2429,-1.243,-1.2469,-1.2472,-1.2512,-1.2541,-1.2552,-1.2587,-1.2588,-1.2605,-1.2607,-1.262,-1.2657,-1.266,0,0,0,-1.2434,-1.2446,-1.2458,-1.2479,-1.2502,-1.2521,-1.2545,-1.2557,-1.2586,-1.2568,-1.2615,-1.2616,-1.2624,-1.2629,-1.2631,-1.2639,-1.2607,-1.2607,-1.2607,-1.2454,-1.2467,-1.2495,-1.2514,-1.2534,-1.2559,-1.2577,-1.2596,-1.2603,-1.2614,-1.2624,-1.2644,-1.265,-1.2652,-1.2659,-1.2631,-1.2631,-1.2631,-1.2631,-1.2489,-1.2508,-1.2516,-1.2547,-1.256,-1.2587,-1.2612,-1.2616,-1.2643,-1.2638,-1.2646,-1.2639,-1.2654,-1.2661,-1.2631,-1.2631,-1.2631,-1.2631,-1.2631,-1.2503,-1.2514,-1.2527,-1.2558,-1.2581,-1.26,-1.2625,-1.2637,-1.2648,-1.2656,-1.2667,-1.2667,-1.2668,-1.2661,-1.2661,-1.2661,-1.2661,-1.2661,-1.2661,-1.2512,-1.2526,-1.2545,-1.2571,-1.2586,-1.2607,-1.2633,-1.2648,-1.2668,-1.2675,-1.2675,-1.268,-1.2654,-1.2646,-1.2662,-1.2662,-1.2662,-1.2662,-1.2662,-1.254,-1.2536,-1.2565,-1.258,-1.2612,-1.2634,-1.2649,-1.2679,-1.2693,-1.2705,-1.271,-1.2688,-1.2691,-1.2689,-1.2683,-1.2707,-1.2707,-1.2707,-1.2707,-1.2551,-1.2554,-1.2586,-1.2609,-1.2633,-1.265,-1.2683,-1.2704,-1.2724,-1.2734,-1.2733,-1.2726,-1.2724,-1.2727,-1.2725,-1.2719,-1.2752,-1.2752,-1.2752,-1.2569,-1.2575,-1.26,-1.2619,-1.2645,-1.2667,-1.2699,-1.2726,-1.2748,-1.2754,-1.2742,-1.274,-1.2729,-1.2725,-1.2729,-1.2725,-1.2715,0,0]},{"header":{"parameterUnit":"m.s-1","parameterCategory":1,"la1":30.2992,"la2":30.254,"lo1":-89.0895,"lo2":-89.0443,"dy":0.0025,"dx":0.0025,"nx":19,"ny":19,"refTime":"2026-05-07T03:00:00:Z","depth":0,"parameterNumber":3,"parameterNumberName":"V-component_of_WINDS"},"data":[0,0,0,5.4992,5.4995,5.5123,5.5123,5.5282,5.5284,0,0,0,0,0,0,0,0,0,0,0,5.4953,5.4954,5.4992,5.4995,5.5123,5.5123,5.5282,5.5284,0,0,0,0,0,0,0,0,0,0,0,5.4952,5.4954,5.4955,5.4995,5.5123,5.5123,5.5282,5.5186,0,0,0,0,0,0,0,0,0,0,5.5063,5.5026,5.4953,5.4955,5.4996,5.5122,5.5123,5.5182,5.5192,5.5223,0,5.5251,0,5.527,5.5294,5.5295,0,0,0,5.4995,5.5017,5.5053,5.4955,5.4997,5.5122,5.5065,5.5188,5.5199,5.5237,5.5254,5.526,5.5273,5.5295,5.5296,5.5479,5.548,0,0,5.4988,5.4974,5.5045,5.5061,5.5043,5.5061,5.5069,5.5195,5.5211,5.5254,5.5264,5.5276,5.5296,5.5297,5.5479,5.548,0,0,0,5.4968,5.4969,5.5003,5.5054,5.5078,5.5065,5.5074,5.5206,5.5218,5.5265,5.5278,5.5297,5.5299,5.5478,5.5479,5.5511,0,0,0,5.4963,5.4958,5.4999,5.4992,5.5075,5.5144,5.5082,5.5209,5.5224,5.5277,5.5297,5.5301,5.5477,5.5478,5.5508,5.5528,0,0,0,5.4945,5.4955,5.4974,5.4991,5.5046,5.5142,5.5161,5.5213,5.5231,5.5295,5.5301,5.5476,5.5478,5.5505,5.5524,5.5575,0,0,0,5.492,5.4997,5.4974,5.5065,5.5045,5.5161,5.5161,5.5247,5.5305,5.5298,5.5477,5.5479,5.5505,5.5521,5.5572,5.5616,5.5633,0,0,5.5009,5.5007,5.5062,5.5045,5.5162,5.5142,5.5264,5.5328,5.5344,5.5433,5.5438,5.5509,5.5523,5.5574,5.573,5.5744,0,0,0,5.5085,5.5125,5.5159,5.5215,5.5268,5.5316,5.5363,5.5388,5.5465,5.5388,5.5541,5.5549,5.558,5.5602,5.5613,5.5641,5.5488,5.5488,5.5488,5.5191,5.5212,5.5305,5.5342,5.5396,5.5447,5.5493,5.5534,5.5535,5.5571,5.5598,5.5691,5.5716,5.5725,5.5754,5.5622,5.5622,5.5622,5.5622,5.5325,5.5385,5.539,5.5482,5.5503,5.5579,5.5631,5.563,5.5704,5.5671,5.5699,5.5663,5.5739,5.5765,5.5625,5.5624,5.5624,5.5624,5.5624,5.5399,5.5431,5.5462,5.5549,5.5613,5.5647,5.5719,5.5734,5.5748,5.5776,5.5808,5.5807,5.581,5.579,5.579,5.5791,5.5791,5.5791,5.5791,5.5463,5.5497,5.5557,5.5623,5.5664,5.5719,5.5772,5.5812,5.5859,5.5864,5.5865,5.5864,5.5742,5.5713,5.5796,5.5795,5.5795,5.5794,5.5794,5.5593,5.5568,5.5661,5.5702,5.5783,5.5847,5.5867,5.5947,5.5981,5.6017,5.6011,5.5918,5.5916,5.5907,5.5883,5.6005,5.6005,5.6005,5.6005,5.5656,5.5658,5.5759,5.5825,5.589,5.5918,5.6024,5.6067,5.6107,5.613,5.6114,5.6082,5.6072,5.6076,5.6063,5.6041,5.6201,5.6202,5.6202,5.5739,5.5748,5.5836,5.5878,5.5943,5.5998,5.6099,5.6173,5.6211,5.621,5.6149,5.614,5.6089,5.6071,5.6068,5.6048,5.6008,0,0]}]]